Kimball, NE

11:51 PM MST on February 13, 2016 (GMT -0700)
Kimball Municipal-Arraj

Weather History for KIBM - October, 2012

Change the Weather History Date:

Wednesday, October 10, 2012

  Actual Average (KSNY) Record (KSNY)
Temperature  
Mean Temperature 46 °F 52 °F  
Max Temperature 67 °F 67 °F 89 °F (2015)
Min Temperature 26 °F 37 °F 15 °F (2009)
Degree Days  
Heating Degree Days 18 13  
Month to date heating degree days 113  
Since 1 July heating degree days 253  
Cooling Degree Days 0 0  
Month to date cooling degree days 1  
Year to date cooling degree days 827  
Moisture  
Dew Point 31 °F    
Average Humidity 68    
Maximum Humidity 95    
Minimum Humidity 26    
Precipitation  
Precipitation 0.00 in 0.04 in 1.27 in (2005)
Month to date precipitation 0.40  
Year to date precipitation 16.81  
Sea Level Pressure  
Sea Level Pressure 30.07 in    
Wind  
Wind Speed 7 mph (SW)    
Max Wind Speed 15 mph    
Max Gust Speed 16 mph    
Visibility 9 miles    
Events      
T = Trace of Precipitation, MM = Missing Value Source: NWS Daily Summary

Daily Weather History Graph

Daily Weather History Graph

Search for Another Location

Airport or City:

Trip Planner

Search our weather history database for the weather conditions in past years. The results will help you decide how hot, cold, wet, or windy it might be!

Date:

Astronomy

Oct. 10, 2012 Rise Set
Actual Time 8:01 AM CDT 7:20 PM CDT
Civil Twilight 7:33 AM CDT 7:48 PM CDT
Nautical Twilight 7:01 AM CDT 8:20 PM CDT
Astronomical Twilight 6:29 AM CDT 8:52 PM CDT
Moon 2:37 AM CDT (10/10) 4:27 PM CDT (10/10)
Length of Visible Light 12h 14m
Length of Day
11h 19m
Waning Crescent, 27% of the Moon is Illuminated
Oct 10
Waning Crescent
Oct 15
New
Oct 21
First Quarter
Oct 29
Full
Nov 6
Last Quarter

Hourly Weather History & Observations

Time (CDT) Temp. Windchill Dew Point Humidity Pressure Visibility Wind Dir Wind Speed Gust Speed Precip Events Conditions
12:15 AM 31.1 °F 26.4 °F 27.9 °F 88% 30.18 in 10.0 mi WSW 4.6 mph - N/A   Clear
12:35 AM 30.9 °F 24.3 °F 28.0 °F 89% 30.18 in 10.0 mi WSW 6.9 mph - N/A   Clear
12:55 AM 30.2 °F 24.3 °F 27.3 °F 89% 30.19 in 10.0 mi WSW 5.8 mph - N/A   Clear
1:15 AM 29.8 °F 24.9 °F 27.3 °F 90% 30.19 in 10.0 mi WSW 4.6 mph - N/A   Clear
1:35 AM 30.2 °F 24.3 °F 28.0 °F 92% 30.19 in 10.0 mi WSW 5.8 mph - N/A   Clear
1:55 AM 29.7 °F - 27.3 °F 91% 30.19 in 10.0 mi Calm Calm - N/A   Clear
2:15 AM 30.0 °F 25.2 °F 27.7 °F 91% 30.19 in 10.0 mi SW 4.6 mph - N/A   Clear
2:35 AM 29.3 °F 24.3 °F 27.3 °F 92% 30.19 in 10.0 mi SW 4.6 mph - N/A   Clear
2:55 AM 29.7 °F 24.7 °F 27.9 °F 93% 30.19 in 10.0 mi SW 4.6 mph - N/A   Clear
3:15 AM 29.7 °F 24.7 °F 28.0 °F 94% 30.18 in 10.0 mi SW 4.6 mph - N/A   Clear
3:35 AM 29.3 °F 23.2 °F 27.7 °F 94% 30.17 in 10.0 mi SW 5.8 mph - N/A   Clear
3:55 AM 29.7 °F 22.8 °F 28.0 °F 94% 30.17 in 10.0 mi SW 6.9 mph - N/A   Clear
4:15 AM 29.7 °F 23.7 °F 28.0 °F 94% 30.17 in 10.0 mi WSW 5.8 mph - N/A   Clear
4:35 AM 29.5 °F 24.5 °F 28.0 °F 94% 30.16 in 10.0 mi WSW 4.6 mph - N/A   Clear
4:55 AM 28.6 °F 22.4 °F 27.1 °F 94% 30.16 in 10.0 mi WSW 5.8 mph - N/A   Clear
5:15 AM 28.9 °F 22.8 °F 27.5 °F 94% 30.16 in 10.0 mi WSW 5.8 mph - N/A   Clear
5:35 AM 28.8 °F 23.7 °F 27.3 °F 94% 30.15 in 7.0 mi WSW 4.6 mph - N/A   Clear
5:55 AM 27.5 °F 19.3 °F 26.2 °F 95% 30.15 in 7.0 mi WSW 8.1 mph - N/A   Clear
6:15 AM 27.0 °F 20.5 °F 25.5 °F 94% 30.15 in 7.0 mi West 5.8 mph - N/A   Clear
6:35 AM 27.0 °F 19.5 °F 25.2 °F 93% 30.14 in 7.0 mi West 6.9 mph - N/A   Clear
6:55 AM 27.0 °F 19.5 °F 25.5 °F 94% 30.14 in 7.0 mi West 6.9 mph - N/A   Clear
7:15 AM 26.6 °F 19.1 °F 24.8 °F 93% 30.14 in 7.0 mi West 6.9 mph - N/A   Clear
7:35 AM 27.5 °F 19.3 °F 26.2 °F 95% 30.14 in 5.0 mi West 8.1 mph - N/A   Clear
7:55 AM 27.0 °F 20.5 °F 25.3 °F 94% 30.14 in 5.0 mi WSW 5.8 mph - N/A   Clear
8:15 AM 27.3 °F 20.9 °F 25.7 °F 94% 30.13 in 4.0 mi West 5.8 mph - N/A   Clear
8:35 AM 27.5 °F 23.6 °F 26.1 °F 94% 30.13 in 4.0 mi WSW 3.5 mph - N/A   Clear
8:55 AM 29.7 °F 23.7 °F 28.0 °F 94% 30.13 in 4.0 mi WSW 5.8 mph - N/A   Clear
9:15 AM 31.5 °F 26.8 °F 29.3 °F 92% 30.13 in 5.0 mi WSW 4.6 mph - N/A   Clear
9:35 AM 33.6 °F 29.4 °F 31.6 °F 92% 30.13 in 5.0 mi WSW 4.6 mph - N/A   Clear
9:55 AM 37.4 °F 32.8 °F 34.9 °F 91% 30.13 in 5.0 mi SW 5.8 mph - N/A   Clear
10:15 AM 42.1 °F 37.7 °F 37.8 °F 85% 30.13 in 7.0 mi SSW 6.9 mph - N/A   Clear
10:35 AM 46.2 °F 41.2 °F 37.9 °F 73% 30.12 in 10.0 mi SSW 10.4 mph - N/A   Clear
10:55 AM 48.0 °F - 37.8 °F 68% 30.12 in 10.0 mi SSW 9.2 mph - N/A   Clear
11:15 AM 50.0 °F - 37.8 °F 63% 30.11 in 10.0 mi SSW 8.1 mph - N/A   Clear
11:55 AM 53.4 °F - 37.8 °F 55% 30.10 in 10.0 mi South 9.2 mph - N/A   Clear
12:15 PM 55.2 °F - 36.9 °F 50% 30.09 in 10.0 mi South 6.9 mph - N/A   Clear
12:35 PM 56.7 °F - 36.5 °F 47% 30.08 in 10.0 mi SSE 6.9 mph - N/A   Clear
12:55 PM 57.9 °F - 35.8 °F 44% 30.07 in 10.0 mi South 11.5 mph 16.1 mph N/A   Clear
1:15 PM 58.8 °F - 35.4 °F 42% 30.06 in 10.0 mi South 8.1 mph - N/A   Clear
1:35 PM 59.4 °F - 34.5 °F 39% 30.05 in 10.0 mi South 8.1 mph - N/A   Clear
1:55 PM 61.0 °F - 34.0 °F 36% 30.04 in 10.0 mi SSW 9.2 mph - N/A   Clear
2:15 PM 61.5 °F - 33.3 °F 35% 30.02 in 10.0 mi South 10.4 mph - N/A   Clear
2:35 PM 62.6 °F - 32.7 °F 33% 30.00 in 10.0 mi South 10.4 mph - N/A   Clear
2:55 PM 63.5 °F - 32.9 °F 32% 30.00 in 10.0 mi SSW 10.4 mph 16.1 mph N/A   Clear
3:15 PM 63.0 °F - 32.0 °F 31% 30.00 in 10.0 mi South 8.1 mph - N/A   Clear
3:35 PM 63.0 °F - 32.2 °F 32% 29.99 in 10.0 mi SSW 9.2 mph - N/A   Clear
3:55 PM 61.7 °F - 32.9 °F 34% 29.99 in 10.0 mi SSW 13.8 mph - N/A   Clear
4:15 PM 60.1 °F - 33.8 °F 37% 29.99 in 10.0 mi South 11.5 mph - N/A   Clear
4:35 PM 60.8 °F - 34.3 °F 37% 29.98 in 10.0 mi South 12.7 mph - N/A   Clear
4:55 PM 65.5 °F - 33.1 °F 30% 29.96 in 10.0 mi South 10.4 mph - N/A   Clear
5:15 PM 67.1 °F - 30.6 °F 26% 29.95 in 10.0 mi South 9.2 mph - N/A   Clear
5:35 PM 67.1 °F - 32.4 °F 28% 29.95 in 10.0 mi South 15.0 mph - N/A   Clear
5:55 PM 64.9 °F - 33.6 °F 31% 29.95 in 10.0 mi South 13.8 mph - N/A   Clear
6:15 PM 62.2 °F - 34.0 °F 35% 29.95 in 10.0 mi South 15.0 mph - N/A   Clear
6:35 PM 60.8 °F - 34.0 °F 37% 29.96 in 10.0 mi South 11.5 mph - N/A   Clear
6:55 PM 58.3 °F - 33.8 °F 40% 29.97 in 10.0 mi SSW 5.8 mph - N/A   Clear
7:15 PM 54.5 °F - 32.5 °F 43% 29.97 in 10.0 mi SSW 4.6 mph - N/A   Clear
7:35 PM 54.1 °F - 32.0 °F 43% 29.97 in 10.0 mi SSW 3.5 mph - N/A   Clear
7:55 PM 51.1 °F - 32.9 °F 50% 29.97 in 10.0 mi SW 5.8 mph - N/A   Clear
8:15 PM 50.4 °F - 32.9 °F 51% 29.98 in 10.0 mi SW 8.1 mph - N/A   Clear
8:35 PM 48.7 °F - 32.9 °F 54% 29.98 in 10.0 mi SSW 9.2 mph - N/A   Clear
8:55 PM 48.2 °F - 32.9 °F 55% 29.97 in 10.0 mi SW 6.9 mph - N/A   Clear
9:15 PM 45.9 °F 42.3 °F 33.3 °F 61% 29.97 in 10.0 mi SW 6.9 mph - N/A   Clear
9:35 PM 43.9 °F 40.5 °F 33.4 °F 67% 29.97 in 10.0 mi WSW 5.8 mph - N/A   Clear
9:55 PM 43.3 °F 41.7 °F 33.8 °F 69% 29.97 in 10.0 mi SW 3.5 mph - N/A   Clear
10:15 PM 41.5 °F 37.8 °F 32.9 °F 71% 29.97 in 10.0 mi SSW 5.8 mph - N/A   Clear
10:35 PM 41.9 °F 37.5 °F 33.3 °F 71% 29.97 in 10.0 mi SSW 6.9 mph - N/A   Clear
10:55 PM 39.6 °F 36.3 °F 32.9 °F 77% 29.97 in 10.0 mi WSW 4.6 mph - N/A   Clear
11:15 PM 37.6 °F 32.3 °F 32.0 °F 80% 29.97 in 10.0 mi West 6.9 mph - N/A   Clear
11:35 PM 39.0 °F 32.8 °F 32.7 °F 78% 29.97 in 10.0 mi West 9.2 mph - N/A   Clear
11:55 PM 39.7 °F 35.6 °F 32.9 °F 77% 29.97 in 10.0 mi WNW 5.8 mph - N/A   Clear